Location: Eastlake (historical)
(39.0077°N, 122.6678°W)
Time: 09:01:59
(UTC+00:00)

Cosmos 1408 Rocket - Pass Details

Date: 25 November 2020
Orbit: 601 x 631 km, 82.6° (Epoch: 25 January)

Event Time Altitude Azimuth Distance (km) Brightness Sun altitude
Rises 13:31:00 0° 181° (S) 2,905 7.2 -18.0°
Reaches altitude 10° 13:33:13 10° 180° (S) 2,003 6.3 -17.6°
Maximum altitude 13:37:39 75° 95° (E) 657 3.8 -16.8°
Drops below altitude 10° 13:42:07 10° 11° (N) 2,016 6.2 -15.9°
Sets 13:44:22 0° 10° (N) 2,926 7.0 -15.5°
